リニア彗星

P/2024 O3 ( LINEAR )

English version
Home page
Updated on September 10, 2024

---------------------------------------------------------------------

・ プロフィール

検出日 2024年7月18日
検出光度 19.9等
検出者 Zwicky Transient Facility (ZTF) Collaboration

・ 写真集

・ 軌道要素

Epoch 2024 Oct. 17.0 TT = JDT 2460600.5                                         
T 2024 July 20.51845 TT                                 Rudenko                 
q   1.7822257            (2000.0)            P               Q                  
n   0.07118146     Peri.   41.00025     +0.61382863     -0.78848583             
a   5.7662234      Node    11.31701     +0.66287552     +0.48811278             
e   0.6909198      Incl.   11.40008     +0.42873123     +0.37421386             
P  13.8                                                                         
>From 661 observations 2010 Aug. 14-2024 Aug. 13, mean residual 0".8.            

・ 光度変化

        m1 = 13.0 + 5 logΔ + 12.0 log r(t - 100)

---------------------------------------------------------------------

軌道要素はM.P.E.C. 2024-Q34に掲載されたものです。
光度グラフはComet for Windowsで作成したものです。

---------------------------------------------------------------------

Copyright(C) Seiichi Yoshida (comet@aerith.net). All rights reserved.